Location: San Martino di Castrozza
(46.2667°N, 11.8000°E)
Time: 16:39:55
(UTC+00:00)

RESURS DK-1 - Pass Details

Date: 23 April 2021
Orbit: 553 x 563 km, 69.9° (Epoch: 13 May)

Event Time Altitude Azimuth Distance (km) Brightness Sun altitude
Rises 02:49:53 0° 337° (NNW) 2,764 6.1 -13.5°
Reaches altitude 10° 02:52:14 10° 346° (NNW) 1,865 5.3 -13.1°
Maximum altitude 02:56:07 37° 55° (NE) 883 4.1 -12.6°
Drops below altitude 10° 03:00:00 10° 124° (SE) 1,855 5.3 -12.0°
Sets 03:02:19 0° 132° (SE) 2,747 6.1 -11.7°
